| time (UTC) | temp F | wind direction | speed MPH | gust MPH | rain 1hr in | rain 24hr in | rain mn in | humidity % | barometer mb |
| 20260906234509 | 63 | 259 | 0.0 | 6.0 | 0.00 | 0.05 | 0.04 | 64 | 1015.2 |
| 20260906234008 | 63 | 252 | 0.0 | 3.0 | 0.00 | 0.05 | 0.04 | 64 | 1015.2 |
| 20260906233509 | 64 | 251 | 0.0 | 3.0 | 0.00 | 0.05 | 0.04 | 63 | 1015.1 |
| 20260906233018 | 64 | 251 | 0.0 | 3.0 | 0.00 | 0.05 | 0.04 | 62 | 1015.2 |
| 20260906232508 | 64 | 289 | 0.0 | 3.0 | 0.00 | 0.05 | 0.04 | 62 | 1015.2 |
| 20260906232008 | 65 | 291 | 0.0 | 5.0 | 0.00 | 0.05 | 0.04 | 61 | 1015.2 |
| 20260906231507 | 65 | 291 | 1.0 | 5.0 | 0.00 | 0.05 | 0.04 | 60 | 1015.0 |
| 20260906231010 | 65 | 291 | 0.0 | 4.0 | 0.00 | 0.05 | 0.04 | 60 | 1015.1 |
| 20260906230507 | 66 | 291 | 0.0 | 4.0 | 0.00 | 0.05 | 0.04 | 59 | 1015.1 |
| 20260906230015 | 66 | 294 | 0.0 | 5.0 | 0.00 | 0.05 | 0.04 | 58 | 1014.9 |
| 20260906225507 | 67 | 295 | 1.0 | 5.0 | 0.00 | 0.05 | 0.04 | 59 | 1014.9 |
| 20260906225007 | 67 | 262 | 0.0 | 5.0 | 0.00 | 0.05 | 0.04 | 57 | 1014.9 |
| 20260906224514 | 67 | 301 | 1.0 | 5.0 | 0.00 | 0.05 | 0.04 | 56 | 1014.8 |
| 20260906224009 | 68 | 264 | 0.0 | 9.0 | 0.00 | 0.05 | 0.04 | 56 | 1014.8 |
| 20260906223507 | 68 | 264 | 2.0 | 9.0 | 0.00 | 0.05 | 0.04 | 56 | 1014.8 |
| 20260906223004 | 69 | 292 | 1.0 | 4.0 | 0.00 | 0.05 | 0.04 | 58 | 1014.8 |
| 20260906222504 | 70 | 297 | 1.0 | 3.0 | 0.00 | 0.05 | 0.04 | 57 | 1014.7 |
| 20260906222004 | 70 | 297 | 1.0 | 4.0 | 0.00 | 0.05 | 0.04 | 55 | 1014.8 |
| 20260906221505 | 70 | 301 | 2.0 | 4.0 | 0.00 | 0.05 | 0.04 | 56 | 1014.8 |
| 20260906221004 | 70 | 295 | 1.0 | 4.0 | 0.00 | 0.05 | 0.04 | 57 | 1014.8 |
| 20260906220503 | 71 | 297 | 0.0 | 5.0 | 0.00 | 0.05 | 0.04 | 57 | 1014.8 |
| 20260906220003 | 70 | 359 | 0.0 | 2.0 | 0.00 | 0.05 | 0.04 | 59 | 1014.7 |
| 20260906215503 | 69 | 359 | 0.0 | 2.0 | 0.00 | 0.05 | 0.04 | 64 | 1014.7 |
| 20260906215003 | 70 | 359 | 0.0 | 1.0 | 0.00 | 0.05 | 0.04 | 61 | 1014.7 |
| 20260906214504 | 71 | 359 | 0.0 | 6.0 | 0.00 | 0.05 | 0.04 | 59 | 1014.7 |
| 20260906214003 | 72 | 348 | 0.0 | 5.0 | 0.00 | 0.05 | 0.04 | 57 | 1014.6 |
| 20260906213503 | 73 | 278 | 1.0 | 5.0 | 0.00 | 0.05 | 0.04 | 54 | 1014.6 |
| 20260906213002 | 73 | 41 | 1.0 | 3.0 | 0.00 | 0.05 | 0.04 | 53 | 1014.5 |
| 20260906212502 | 73 | 43 | 1.0 | 3.0 | 0.00 | 0.05 | 0.04 | 55 | 1014.5 |
| 20260906212003 | 72 | 43 | 1.0 | 4.0 | 0.00 | 0.05 | 0.04 | 56 | 1014.4 |
| 20260906211502 | 71 | 44 | 1.0 | 4.0 | 0.00 | 0.05 | 0.04 | 56 | 1014.4 |
| 20260906211002 | 71 | 333 | 0.0 | 2.0 | 0.00 | 0.05 | 0.04 | 57 | 1014.5 |
| 20260906210501 | 69 | 334 | 0.0 | 2.0 | 0.00 | 0.05 | 0.04 | 63 | 1014.4 |
| 20260906210001 | 68 | 333 | 0.0 | 3.0 | 0.00 | 0.05 | 0.04 | 61 | 1014.4 |
| 20260906205501 | 69 | 334 | 0.0 | 2.0 | 0.00 | 0.09 | 0.04 | 58 | 1014.5 |
| 20260906205000 | 69 | 334 | 0.0 | 2.0 | 0.00 | 0.09 | 0.04 | 57 | 1014.4 |
| 20260906204622 | 70 | 333 | 0.0 | 4.0 | 0.00 | 0.09 | 0.04 | 58 | 1014.4 |
| 20260906204100 | 70 | 334 | 0.0 | 4.0 | 0.00 | 0.09 | 0.04 | 56 | 1014.4 |
| 20260906203600 | 70 | 335 | 1.0 | 5.0 | 0.00 | 0.09 | 0.04 | 54 | 1014.3 |
| 20260906203059 | 71 | 335 | 2.0 | 7.0 | 0.00 | 0.09 | 0.04 | 55 | 1014.4 |
| 20260906202558 | 72 | 259 | 0.0 | 8.0 | 0.00 | 0.09 | 0.04 | 53 | 1014.3 |
| 20260906202058 | 73 | 279 | 0.0 | 8.0 | 0.00 | 0.09 | 0.04 | 51 | 1014.3 |
| 20260906201606 | 73 | 278 | 2.0 | 8.0 | 0.00 | 0.09 | 0.04 | 51 | 1014.2 |
| 20260906201058 | 73 | 319 | 3.0 | 8.0 | 0.00 | 0.09 | 0.04 | 54 | 1014.2 |
| 20260906200557 | 73 | 283 | 1.0 | 10.0 | 0.00 | 0.09 | 0.04 | 54 | 1014.3 |
| 20260906200057 | 73 | 315 | 5.0 | 10.0 | 0.00 | 0.09 | 0.04 | 54 | 1014.1 |
| 20260906195556 | 75 | 277 | 1.0 | 5.0 | 0.00 | 0.12 | 0.04 | 53 | 1014.2 |
| 20260906195059 | 75 | 273 | 2.0 | 6.0 | 0.00 | 0.12 | 0.04 | 52 | 1014.1 |
| 20260906194557 | 75 | 312 | 2.0 | 11.0 | 0.00 | 0.12 | 0.04 | 52 | 1014.3 |
| 20260906194057 | 74 | 264 | 4.0 | 11.0 | 0.00 | 0.12 | 0.04 | 51 | 1014.2 |
| 20260906193558 | 74 | 228 | 5.0 | 11.0 | 0.00 | 0.12 | 0.04 | 50 | 1014.2 |
| 20260906193054 | 74 | 303 | 3.0 | 6.0 | 0.00 | 0.12 | 0.04 | 51 | 1014.1 |
| 20260906192553 | 73 | 85 | 1.0 | 7.0 | 0.00 | 0.12 | 0.04 | 51 | 1014.2 |
| 20260906192053 | 74 | 316 | 1.0 | 6.0 | 0.00 | 0.12 | 0.04 | 53 | 1014.3 |
| 20260906191553 | 74 | 279 | 2.0 | 7.0 | 0.00 | 0.12 | 0.04 | 52 | 1014.3 |
| 20260906191051 | 73 | 102 | 1.0 | 6.0 | 0.00 | 0.12 | 0.04 | 55 | 1014.3 |
| 20260906190551 | 73 | 22 | 2.0 | 6.0 | 0.00 | 0.12 | 0.04 | 54 | 1014.3 |
| 20260906190050 | 73 | 258 | 1.0 | 7.0 | 0.00 | 0.12 | 0.04 | 61 | 1014.4 |
| 20260906185549 | 72 | 262 | 3.0 | 7.0 | 0.00 | 0.12 | 0.04 | 62 | 1014.5 |
| 20260906185049 | 73 | 218 | 2.0 | 5.0 | 0.00 | 0.12 | 0.04 | 60 | 1014.5 |
| 20260906184547 | 71 | 278 | 1.0 | 4.0 | 0.00 | 0.12 | 0.04 | 65 | 1014.5 |
| 20260906184048 | 69 | 277 | 1.0 | 3.0 | 0.00 | 0.12 | 0.04 | 71 | 1014.5 |
| 20260906183547 | 69 | 277 | 1.0 | 4.0 | 0.00 | 0.12 | 0.04 | 69 | 1014.6 |
| 20260906183047 | 69 | 277 | 2.0 | 4.0 | 0.00 | 0.12 | 0.04 | 69 | 1014.7 |
| 20260906182548 | 69 | 276 | 2.0 | 4.0 | 0.00 | 0.12 | 0.04 | 68 | 1014.7 |
| 20260906182046 | 70 | 276 | 0.0 | 4.0 | 0.00 | 0.12 | 0.04 | 68 | 1014.7 |
| 20260906181547 | 70 | 274 | 2.0 | 4.0 | 0.00 | 0.12 | 0.04 | 69 | 1014.7 |
| 20260906181046 | 71 | 76 | 1.0 | 5.0 | 0.00 | 0.12 | 0.04 | 68 | 1014.7 |
| 20260906180545 | 70 | 76 | 2.0 | 5.0 | 0.00 | 0.12 | 0.04 | 66 | 1014.8 |
| 20260906180058 | 70 | 83 | 2.0 | 6.0 | 0.00 | 0.12 | 0.04 | 69 | 1014.6 |
| 20260906175546 | 70 | 289 | 0.0 | 4.0 | 0.00 | 0.12 | 0.04 | 74 | 1014.7 |
| 20260906175042 | 70 | 289 | 1.0 | 4.0 | 0.00 | 0.12 | 0.04 | 72 | 1014.7 |
| 20260906174545 | 70 | 288 | 0.0 | 2.0 | 0.00 | 0.12 | 0.04 | 75 | 1014.7 |
| 20260906174046 | 68 | 288 | 0.0 | 2.0 | 0.00 | 0.12 | 0.04 | 76 | 1014.9 |
| 20260906173542 | 68 | 288 | 0.0 | 2.0 | 0.00 | 0.12 | 0.04 | 74 | 1014.9 |
| 20260906173042 | 68 | 288 | 0.0 | 7.0 | 0.00 | 0.12 | 0.04 | 76 | 1014.9 |
| 20260906172544 | 69 | 288 | 2.0 | 7.0 | 0.00 | 0.12 | 0.04 | 73 | 1015.0 |
| 20260906172042 | 70 | 249 | 2.0 | 7.0 | 0.00 | 0.12 | 0.04 | 73 | 1015.0 |
| 20260906171543 | 70 | 256 | 1.0 | 5.0 | 0.00 | 0.12 | 0.04 | 74 | 1015.1 |
| 20260906171041 | 70 | 303 | 1.0 | 5.0 | 0.00 | 0.12 | 0.04 | 75 | 1015.1 |
| 20260906170540 | 69 | 246 | 2.0 | 5.0 | 0.00 | 0.12 | 0.04 | 76 | 1015.2 |
| 20260906170039 | 68 | 54 | 1.0 | 4.0 | 0.01 | 0.12 | 0.04 | 79 | 1015.4 |
| 20260906165538 | 68 | 295 | 1.0 | 5.0 | 0.02 | 0.12 | 0.04 | 79 | 1015.4 |
| 20260906165037 | 67 | 316 | 2.0 | 8.0 | 0.02 | 0.12 | 0.04 | 81 | 1015.6 |
| 20260906164536 | 66 | 246 | 1.0 | 8.0 | 0.02 | 0.12 | 0.04 | 81 | 1015.4 |
| 20260906164035 | 67 | 343 | 1.0 | 4.0 | 0.02 | 0.12 | 0.04 | 81 | 1015.5 |
| 20260906163538 | 66 | 282 | 0.0 | 2.0 | 0.02 | 0.12 | 0.04 | 84 | 1015.6 |
| 20260906163034 | 67 | 282 | 0.0 | 3.0 | 0.02 | 0.12 | 0.04 | 87 | 1015.7 |
| 20260906162535 | 63 | 282 | 0.0 | 3.0 | 0.02 | 0.12 | 0.04 | 87 | 1015.8 |
| 20260906162033 | 62 | 283 | 0.0 | 1.0 | 0.02 | 0.12 | 0.04 | 87 | 1015.8 |
| 20260906161540 | 63 | 283 | 0.0 | 1.0 | 0.02 | 0.12 | 0.04 | 87 | 1015.9 |
| 20260906161032 | 63 | 283 | 0.0 | 2.0 | 0.02 | 0.12 | 0.04 | 86 | 1016.0 |
| 20260906160532 | 63 | 283 | 0.0 | 2.0 | 0.02 | 0.12 | 0.04 | 85 | 1016.0 |
| 20260906160032 | 63 | 283 | 0.0 | 4.0 | 0.01 | 0.11 | 0.03 | 85 | 1016.1 |
| 20260906155532 | 63 | 270 | 1.0 | 3.0 | 0.00 | 0.10 | 0.02 | 86 | 1016.1 |
| 20260906155032 | 63 | 269 | 0.0 | 3.0 | 0.00 | 0.10 | 0.02 | 86 | 1016.1 |
| 20260906154542 | 64 | 271 | 0.0 | 3.0 | 0.00 | 0.10 | 0.02 | 85 | 1016.1 |
| 20260906154032 | 64 | 270 | 1.0 | 6.0 | 0.00 | 0.10 | 0.02 | 84 | 1016.1 |
| 20260906153531 | 64 | 271 | 2.0 | 6.0 | 0.00 | 0.10 | 0.02 | 85 | 1016.1 |
| 20260906153034 | 64 | 25 | 1.0 | 4.0 | 0.00 | 0.10 | 0.02 | 84 | 1016.1 |
| 20260906152531 | 65 | 316 | 1.0 | 8.0 | 0.00 | 0.10 | 0.02 | 83 | 1016.2 |
| 20260906152031 | 64 | 294 | 2.0 | 8.0 | 0.00 | 0.10 | 0.02 | 82 | 1016.2 |
| 20260906151531 | 64 | 343 | 1.0 | 6.0 | 0.00 | 0.10 | 0.02 | 82 | 1016.2 |
| 20260906151030 | 64 | 279 | 1.0 | 9.0 | 0.00 | 0.10 | 0.02 | 81 | 1016.2 |
| 20260906150531 | 65 | 299 | 3.0 | 7.0 | 0.00 | 0.10 | 0.02 | 81 | 1016.3 |
| 20260906150039 | 65 | 4 | 1.0 | 5.0 | 0.00 | 0.10 | 0.02 | 82 | 1016.4 |
| 20260906145530 | 65 | 268 | 1.0 | 5.0 | 0.00 | 0.10 | 0.02 | 82 | 1016.3 |
| 20260906145030 | 65 | 306 | 2.0 | 5.0 | 0.00 | 0.10 | 0.02 | 82 | 1016.3 |
| 20260906144530 | 65 | 344 | 2.0 | 4.0 | 0.00 | 0.10 | 0.02 | 82 | 1016.3 |
| 20260906144030 | 64 | 85 | 2.0 | 5.0 | 0.00 | 0.10 | 0.02 | 85 | 1016.2 |
| 20260906143528 | 63 | 343 | 1.0 | 5.0 | 0.00 | 0.10 | 0.02 | 85 | 1016.4 |
| 20260906143026 | 63 | 299 | 1.0 | 5.0 | 0.00 | 0.10 | 0.02 | 85 | 1016.5 |
| 20260906142529 | 63 | 293 | 2.0 | 6.0 | 0.00 | 0.10 | 0.02 | 86 | 1016.4 |
| 20260906142026 | 62 | 70 | 1.0 | 6.0 | 0.00 | 0.10 | 0.02 | 86 | 1016.4 |
| 20260906141524 | 62 | 42 | 0.0 | 4.0 | 0.00 | 0.10 | 0.02 | 87 | 1016.5 |
| 20260906141023 | 61 | 42 | 2.0 | 4.0 | 0.00 | 0.10 | 0.02 | 87 | 1016.4 |
| 20260906140521 | 61 | 41 | 1.0 | 4.0 | 0.00 | 0.10 | 0.02 | 87 | 1016.5 |
| 20260906140032 | 61 | 304 | 0.0 | 6.0 | 0.00 | 0.10 | 0.02 | 87 | 1016.5 |
| 20260906135521 | 61 | 303 | 2.0 | 7.0 | 0.00 | 0.10 | 0.02 | 88 | 1016.5 |
| 20260906135019 | 61 | 70 | 1.0 | 5.0 | 0.00 | 0.10 | 0.02 | 88 | 1016.5 |
| 20260906134519 | 61 | 70 | 1.0 | 5.0 | 0.00 | 0.10 | 0.02 | 88 | 1016.5 |
| 20260906134019 | 60 | 23 | 0.0 | 3.0 | 0.00 | 0.10 | 0.02 | 88 | 1016.4 |
| 20260906133518 | 60 | 23 | 0.0 | 4.0 | 0.00 | 0.10 | 0.02 | 89 | 1016.4 |
| 20260906133024 | 61 | 23 | 1.0 | 4.0 | 0.00 | 0.10 | 0.02 | 89 | 1016.4 |
| 20260906132518 | 61 | 22 | 1.0 | 4.0 | 0.00 | 0.10 | 0.02 | 89 | 1016.4 |
| 20260906132017 | 61 | 22 | 1.0 | 4.0 | 0.00 | 0.10 | 0.02 | 90 | 1016.4 |
| 20260906131518 | 60 | 22 | 1.0 | 4.0 | 0.00 | 0.10 | 0.02 | 90 | 1016.4 |
| 20260906131017 | 60 | 23 | 0.0 | 2.0 | 0.00 | 0.10 | 0.02 | 90 | 1016.3 |
| 20260906130517 | 59 | 23 | 0.0 | 4.0 | 0.00 | 0.10 | 0.02 | 90 | 1016.3 |
| 20260906130024 | 59 | 23 | 1.0 | 4.0 | 0.00 | 0.10 | 0.02 | 90 | 1016.4 |
| 20260906125516 | 59 | 23 | 0.0 | 4.0 | 0.00 | 0.10 | 0.02 | 90 | 1016.3 |
| 20260906125019 | 59 | 23 | 0.0 | 4.0 | 0.00 | 0.10 | 0.02 | 90 | 1016.2 |
| 20260906124515 | 59 | 22 | 1.0 | 4.0 | 0.00 | 0.10 | 0.02 | 91 | 1016.2 |
| 20260906124015 | 59 | 26 | 0.0 | 3.0 | 0.00 | 0.10 | 0.02 | 91 | 1016.3 |
| 20260906123515 | 59 | 26 | 0.0 | 3.0 | 0.00 | 0.10 | 0.02 | 91 | 1016.3 |
| 20260906123027 | 59 | 26 | 0.0 | 2.0 | 0.00 | 0.10 | 0.02 | 91 | 1016.3 |
| 20260906122517 | 58 | 26 | 0.0 | 3.0 | 0.00 | 0.10 | 0.02 | 91 | 1016.2 |
| 20260906122014 | 58 | 26 | 0.0 | 3.0 | 0.00 | 0.10 | 0.02 | 91 | 1016.2 |
| 20260906121514 | 58 | 27 | 0.0 | 3.0 | 0.00 | 0.10 | 0.02 | 91 | 1016.2 |
| 20260906121013 | 58 | 27 | 0.0 | 2.0 | 0.00 | 0.10 | 0.02 | 91 | 1016.2 |
| 20260906120514 | 58 | 27 | 0.0 | 4.0 | 0.00 | 0.10 | 0.02 | 91 | 1016.2 |
| 20260906120013 | 58 | 27 | 0.0 | 4.0 | 0.00 | 0.10 | 0.02 | 92 | 1016.1 |
| 20260906115513 | 59 | 25 | 0.0 | 3.0 | 0.00 | 0.10 | 0.02 | 92 | 1016.1 |
| 20260906115011 | 59 | 22 | 0.0 | 3.0 | 0.00 | 0.10 | 0.02 | 92 | 1016.0 |
| 20260906114511 | 59 | 17 | 1.0 | 3.0 | 0.00 | 0.10 | 0.02 | 93 | 1015.8 |
| 20260906114010 | 59 | 14 | 0.0 | 2.0 | 0.00 | 0.10 | 0.02 | 93 | 1015.7 |
| 20260906113513 | 58 | 15 | 0.0 | 3.0 | 0.00 | 0.10 | 0.02 | 94 | 1015.6 |
| 20260906113013 | 57 | 14 | 0.0 | 3.0 | 0.00 | 0.10 | 0.02 | 93 | 1015.5 |
| 20260906112506 | 57 | 29 | 0.0 | 2.0 | 0.00 | 0.10 | 0.02 | 93 | 1015.4 |
| 20260906112005 | 57 | 29 | 0.0 | 3.0 | 0.00 | 0.10 | 0.02 | 93 | 1015.4 |
| 20260906111504 | 57 | 28 | 0.0 | 3.0 | 0.00 | 0.10 | 0.02 | 93 | 1015.4 |
| 20260906111003 | 56 | 39 | 0.0 | 2.0 | 0.00 | 0.10 | 0.02 | 93 | 1015.4 |
| 20260906110503 | 56 | 39 | 0.0 | 1.0 | 0.00 | 0.10 | 0.02 | 93 | 1015.4 |
| 20260906110002 | 56 | 39 | 0.0 | 1.0 | 0.00 | 0.10 | 0.02 | 93 | 1015.3 |
| 20260906105600 | 56 | 39 | 0.0 | 1.0 | 0.00 | 0.10 | 0.02 | 93 | 1015.3 |
| 20260906105102 | 56 | 39 | 0.0 | 2.0 | 0.00 | 0.10 | 0.02 | 93 | 1015.2 |
| 20260906104559 | 56 | 39 | 0.0 | 2.0 | 0.00 | 0.10 | 0.02 | 93 | 1015.2 |
| 20260906104057 | 56 | 39 | 0.0 | 1.0 | 0.00 | 0.10 | 0.02 | 93 | 1015.1 |
| 20260906103557 | 56 | 39 | 0.0 | 2.0 | 0.00 | 0.10 | 0.02 | 93 | 1015.0 |
| 20260906103055 | 56 | 39 | 0.0 | 2.0 | 0.00 | 0.10 | 0.02 | 93 | 1014.9 |
| 20260906102554 | 56 | 39 | 0.0 | 2.0 | 0.00 | 0.10 | 0.02 | 93 | 1014.8 |
| 20260906102054 | 56 | 39 | 0.0 | 2.0 | 0.00 | 0.10 | 0.02 | 93 | 1014.8 |
| 20260906101554 | 56 | 39 | 0.0 | 2.0 | 0.00 | 0.10 | 0.02 | 93 | 1014.7 |
| 20260906101053 | 56 | 39 | 0.0 | 3.0 | 0.00 | 0.10 | 0.02 | 93 | 1014.8 |
| 20260906100556 | 56 | 39 | 0.0 | 3.0 | 0.00 | 0.10 | 0.02 | 92 | 1014.7 |
| 20260906100059 | 56 | 39 | 0.0 | 2.0 | 0.00 | 0.10 | 0.02 | 93 | 1014.7 |
| 20260906095552 | 56 | 39 | 0.0 | 1.0 | 0.00 | 0.10 | 0.02 | 92 | 1014.7 |
| 20260906095051 | 56 | 39 | 0.0 | 1.0 | 0.00 | 0.10 | 0.02 | 92 | 1014.5 |
| 20260906094552 | 56 | 39 | 0.0 | 1.0 | 0.00 | 0.10 | 0.02 | 92 | 1014.6 |
| 20260906094052 | 56 | 39 | 0.0 | 2.0 | 0.01 | 0.10 | 0.02 | 92 | 1014.4 |
| 20260906093550 | 56 | 39 | 0.0 | 2.0 | 0.01 | 0.10 | 0.02 | 92 | 1014.5 |
| 20260906093051 | 56 | 39 | 0.0 | 2.0 | 0.01 | 0.10 | 0.02 | 92 | 1014.5 |
| 20260906092552 | 56 | 39 | 0.0 | 2.0 | 0.01 | 0.10 | 0.02 | 92 | 1014.4 |
| 20260906092049 | 57 | 39 | 0.0 | 1.0 | 0.01 | 0.10 | 0.02 | 93 | 1014.5 |
| 20260906091548 | 57 | 39 | 0.0 | 1.0 | 0.01 | 0.10 | 0.02 | 93 | 1014.4 |
| 20260906091048 | 57 | 39 | 0.0 | 1.0 | 0.01 | 0.10 | 0.02 | 93 | 1014.4 |
| 20260906090547 | 57 | 39 | 0.0 | 1.0 | 0.02 | 0.10 | 0.02 | 93 | 1014.5 |
| 20260906090047 | 57 | 39 | 0.0 | 4.0 | 0.02 | 0.10 | 0.02 | 93 | 1014.5 |
| 20260906085551 | 57 | 39 | 1.0 | 4.0 | 0.02 | 0.10 | 0.02 | 92 | 1014.5 |
| 20260906085046 | 57 | 33 | 0.0 | 4.0 | 0.02 | 0.10 | 0.02 | 92 | 1014.3 |
| 20260906084546 | 57 | 17 | 1.0 | 4.0 | 0.01 | 0.09 | 0.01 | 92 | 1014.4 |
| 20260906084045 | 57 | 16 | 1.0 | 5.0 | 0.01 | 0.09 | 0.01 | 93 | 1014.5 |
| 20260906083545 | 57 | 78 | 1.0 | 5.0 | 0.01 | 0.09 | 0.01 | 93 | 1013.9 |
| 20260906083044 | 57 | 51 | 1.0 | 3.0 | 0.01 | 0.09 | 0.01 | 93 | 1014.1 |
| 20260906082544 | 57 | 51 | 0.0 | 2.0 | 0.01 | 0.09 | 0.01 | 93 | 1014.3 |
| 20260906082045 | 57 | 51 | 0.0 | 2.0 | 0.01 | 0.09 | 0.01 | 92 | 1014.5 |
| 20260906081543 | 57 | 52 | 0.0 | 3.0 | 0.01 | 0.09 | 0.01 | 93 | 1014.3 |
| 20260906081042 | 58 | 52 | 0.0 | 3.0 | 0.01 | 0.09 | 0.01 | 92 | 1014.3 |
| 20260906080542 | 58 | 52 | 0.0 | 4.0 | 0.00 | 0.08 | 0.00 | 93 | 1014.4 |
| 20260906080043 | 58 | 52 | 0.0 | 4.0 | 0.00 | 0.08 | 0.00 | 93 | 1014.2 |
| 20260906075539 | 58 | 34 | 0.0 | 3.0 | 0.00 | 0.08 | 0.00 | 93 | 1014.0 |
| 20260906075042 | 58 | 69 | 0.0 | 2.0 | 0.00 | 0.08 | 0.00 | 93 | 1013.9 |
| 20260906074547 | 58 | 68 | 0.0 | 3.0 | 0.00 | 0.08 | 0.00 | 92 | 1013.9 |
| 20260906074037 | 58 | 68 | 0.0 | 3.0 | 0.00 | 0.08 | 0.00 | 92 | 1013.9 |
| 20260906073541 | 58 | 69 | 0.0 | 2.0 | 0.00 | 0.08 | 0.00 | 93 | 1013.9 |
| 20260906073036 | 58 | 68 | 0.0 | 2.0 | 0.00 | 0.08 | 0.00 | 93 | 1013.7 |
| 20260906072536 | 58 | 68 | 0.0 | 2.0 | 0.00 | 0.08 | 0.00 | 92 | 1013.8 |
| 20260906072036 | 59 | 68 | 0.0 | 3.0 | 0.00 | 0.08 | 0.00 | 93 | 1013.9 |
| 20260906071535 | 59 | 68 | 1.0 | 3.0 | 0.00 | 0.08 | 0.00 | 92 | 1013.8 |
| 20260906071035 | 59 | 69 | 0.0 | 2.0 | 0.00 | 0.08 | 0.00 | 93 | 1013.9 |
| 20260906070535 | 59 | 68 | 0.0 | 1.0 | 0.00 | 0.08 | 0.00 | 92 | 1013.9 |
| 20260906070036 | 59 | 69 | 0.0 | 2.0 | 0.00 | 0.08 | 0.00 | 92 | 1013.9 |
| 20260906065535 | 59 | 68 | 0.0 | 2.0 | 0.00 | 0.08 | 0.00 | 93 | 1013.9 |
| 20260906065034 | 59 | 68 | 0.0 | 2.0 | 0.00 | 0.08 | 0.00 | 92 | 1013.8 |
| 20260906064533 | 59 | 68 | 0.0 | 1.0 | 0.00 | 0.08 | 0.00 | 93 | 1013.7 |
| 20260906064033 | 59 | 69 | 0.0 | 1.0 | 0.00 | 0.08 | 0.00 | 93 | 1013.7 |
| 20260906063534 | 59 | 69 | 0.0 | 2.0 | 0.00 | 0.08 | 0.00 | 93 | 1013.7 |
| 20260906063036 | 59 | 68 | 0.0 | 2.0 | 0.00 | 0.08 | 0.00 | 93 | 1013.7 |
| 20260906062530 | 59 | 68 | 1.0 | 3.0 | 0.00 | 0.08 | 0.00 | 93 | 1013.6 |
| 20260906062030 | 60 | 68 | 0.0 | 3.0 | 0.00 | 0.08 | 0.00 | 93 | 1013.7 |
| 20260906061530 | 60 | 68 | 0.0 | 1.0 | 0.00 | 0.08 | 0.00 | 93 | 1013.8 |
| 20260906061029 | 60 | 69 | 0.0 | 2.0 | 0.00 | 0.08 | 0.00 | 93 | 1013.8 |
| 20260906060529 | 60 | 69 | 0.0 | 3.0 | 0.00 | 0.08 | 0.00 | 93 | 1013.7 |
| 20260906060028 | 60 | 68 | 0.0 | 1.0 | 0.00 | 0.08 | 0.00 | 93 | 1013.6 |
| 20260906055528 | 60 | 69 | 0.0 | 1.0 | 0.00 | 0.08 | 0.00 | 93 | 1013.6 |
| 20260906055027 | 60 | 68 | 0.0 | 0.0 | 0.00 | 0.08 | 0.00 | 93 | 1013.5 |
| 20260906054547 | 61 | 68 | 0.0 | 1.0 | 0.00 | 0.08 | 0.00 | 93 | 1013.5 |
| 20260906054026 | 61 | 68 | 0.0 | 2.0 | 0.00 | 0.08 | 0.00 | 93 | 1013.5 |
| 20260906053525 | 61 | 69 | 0.0 | 2.0 | 0.00 | 0.08 | 0.00 | 93 | 1013.6 |
| 20260906053025 | 61 | 68 | 0.0 | 3.0 | 0.00 | 0.08 | 0.00 | 93 | 1013.6 |
| 20260906052528 | 61 | 68 | 0.0 | 3.0 | 0.00 | 0.08 | 0.00 | 93 | 1013.7 |
| 20260906052025 | 61 | 68 | 0.0 | 1.0 | 0.00 | 0.08 | 0.00 | 93 | 1013.6 |
| 20260906051532 | 61 | 68 | 0.0 | 0.0 | 0.00 | 0.08 | 0.00 | 93 | 1013.7 |
| 20260906051024 | 61 | 68 | 0.0 | 2.0 | 0.00 | 0.08 | 0.00 | 93 | 1013.7 |
| 20260906050524 | 61 | 68 | 0.0 | 2.0 | 0.00 | 0.08 | 0.00 | 93 | 1013.7 |
| 20260906050029 | 61 | 68 | 0.0 | 2.0 | 0.00 | 0.08 | 0.00 | 93 | 1013.8 |
| 20260906045524 | 61 | 68 | 1.0 | 2.0 | 0.00 | 0.08 | 0.00 | 93 | 1013.7 |
| 20260906045023 | 61 | 68 | 0.0 | 1.0 | 0.00 | 0.08 | 0.00 | 93 | 1013.7 |
| 20260906044523 | 61 | 68 | 0.0 | 0.0 | 0.00 | 0.08 | 0.00 | 93 | 1013.6 |
| 20260906044022 | 61 | 69 | 0.0 | 0.0 | 0.00 | 0.08 | 0.00 | 93 | 1013.6 |
| 20260906043522 | 61 | 68 | 0.0 | 0.0 | 0.00 | 0.08 | 0.00 | 93 | 1013.6 |
| 20260906043022 | 61 | 68 | 0.0 | 0.0 | 0.00 | 0.08 | 0.00 | 93 | 1013.7 |
| 20260906042521 | 61 | 68 | 0.0 | 2.0 | 0.00 | 0.08 | 0.00 | 93 | 1013.7 |
| 20260906042021 | 61 | 68 | 0.0 | 2.0 | 0.00 | 0.08 | 0.00 | 93 | 1013.7 |
| 20260906041523 | 61 | 68 | 0.0 | 1.0 | 0.00 | 0.08 | 0.00 | 93 | 1013.7 |
| 20260906041020 | 61 | 69 | 0.0 | 0.0 | 0.00 | 0.08 | 0.00 | 93 | 1013.6 |
| 20260906040520 | 61 | 68 | 0.0 | 1.0 | 0.00 | 0.08 | 0.00 | 92 | 1013.7 |
| 20260906040020 | 61 | 68 | 0.0 | 2.0 | 0.00 | 0.08 | 0.00 | 92 | 1013.7 |
| 20260906035521 | 61 | 68 | 0.0 | 2.0 | 0.00 | 0.08 | 0.08 | 92 | 1013.6 |
| 20260906035019 | 61 | 69 | 0.0 | 2.0 | 0.00 | 0.08 | 0.08 | 92 | 1013.6 |
| 20260906034522 | 61 | 68 | 0.0 | 2.0 | 0.00 | 0.08 | 0.08 | 92 | 1013.6 |
| 20260906034019 | 61 | 68 | 0.0 | 0.0 | 0.00 | 0.08 | 0.08 | 92 | 1013.6 |
| 20260906033519 | 61 | 68 | 0.0 | 1.0 | 0.00 | 0.08 | 0.08 | 92 | 1013.6 |
| 20260906033019 | 61 | 68 | 0.0 | 1.0 | 0.00 | 0.08 | 0.08 | 92 | 1013.7 |
| 20260906032517 | 61 | 68 | 0.0 | 0.0 | 0.00 | 0.08 | 0.08 | 92 | 1013.6 |
| 20260906032018 | 61 | 68 | 0.0 | 0.0 | 0.00 | 0.08 | 0.08 | 92 | 1013.5 |
| 20260906031552 | 61 | 68 | 0.0 | 0.0 | 0.00 | 0.08 | 0.08 | 92 | 1013.4 |
| 20260906031019 | 61 | 68 | 0.0 | 0.0 | 0.00 | 0.08 | 0.08 | 92 | 1013.5 |
| 20260906030517 | 61 | 68 | 0.0 | 0.0 | 0.00 | 0.08 | 0.08 | 92 | 1013.6 |
| 20260906030016 | 61 | 68 | 0.0 | 0.0 | 0.00 | 0.08 | 0.08 | 92 | 1013.5 |
| 20260906025519 | 61 | 68 | 0.0 | 0.0 | 0.00 | 0.08 | 0.08 | 92 | 1013.5 |
| 20260906025019 | 61 | 69 | 0.0 | 0.0 | 0.00 | 0.08 | 0.08 | 92 | 1013.5 |
| 20260906024535 | 61 | 68 | 0.0 | 0.0 | 0.00 | 0.08 | 0.08 | 92 | 1013.5 |
| 20260906024017 | 61 | 68 | 0.0 | 0.0 | 0.00 | 0.08 | 0.08 | 92 | 1013.5 |
| 20260906023520 | 61 | 68 | 0.0 | 0.0 | 0.00 | 0.08 | 0.08 | 92 | 1013.4 |
| 20260906023014 | 61 | 68 | 0.0 | 0.0 | 0.00 | 0.08 | 0.08 | 92 | 1013.5 |
| 20260906022514 | 61 | 68 | 0.0 | 1.0 | 0.00 | 0.08 | 0.08 | 92 | 1013.4 |
| 20260906022015 | 62 | 68 | 0.0 | 1.0 | 0.00 | 0.08 | 0.08 | 92 | 1013.4 |
| 20260906021515 | 62 | 68 | 0.0 | 0.0 | 0.00 | 0.08 | 0.08 | 92 | 1013.5 |
| 20260906021014 | 62 | 69 | 0.0 | 0.0 | 0.00 | 0.08 | 0.08 | 92 | 1013.5 |
| 20260906020514 | 62 | 69 | 0.0 | 0.0 | 0.00 | 0.08 | 0.08 | 92 | 1013.4 |
| 20260906020014 | 62 | 68 | 0.0 | 0.0 | 0.00 | 0.08 | 0.08 | 92 | 1013.5 |
| 20260906015514 | 62 | 68 | 0.0 | 0.0 | 0.00 | 0.08 | 0.08 | 92 | 1013.5 |
| 20260906015014 | 62 | 68 | 0.0 | 0.0 | 0.00 | 0.08 | 0.08 | 92 | 1013.5 |
| 20260906014519 | 61 | 68 | 0.0 | 0.0 | 0.00 | 0.08 | 0.08 | 92 | 1013.6 |
| 20260906014015 | 61 | 68 | 0.0 | 1.0 | 0.00 | 0.08 | 0.08 | 92 | 1013.5 |
| 20260906013514 | 61 | 69 | 0.0 | 1.0 | 0.00 | 0.08 | 0.08 | 92 | 1013.5 |
| 20260906013013 | 61 | 69 | 0.0 | 1.0 | 0.00 | 0.08 | 0.08 | 92 | 1013.6 |
| 20260906012512 | 61 | 68 | 0.0 | 0.0 | 0.01 | 0.08 | 0.08 | 92 | 1013.5 |
| 20260906012012 | 62 | 68 | 0.0 | 1.0 | 0.01 | 0.08 | 0.08 | 92 | 1013.5 |
| 20260906011512 | 62 | 68 | 0.0 | 2.0 | 0.01 | 0.08 | 0.08 | 92 | 1013.6 |
| 20260906011013 | 62 | 69 | 0.0 | 2.0 | 0.01 | 0.08 | 0.08 | 92 | 1013.5 |
| 20260906010511 | 62 | 68 | 0.0 | 0.0 | 0.01 | 0.08 | 0.08 | 92 | 1013.3 |
| 20260906010026 | 62 | 68 | 0.0 | 0.0 | 0.01 | 0.08 | 0.08 | 92 | 1013.3 |
| 20260906005510 | 62 | 68 | 0.0 | 0.0 | 0.01 | 0.08 | 0.08 | 91 | 1013.2 |
| 20260906005010 | 62 | 68 | 0.0 | 1.0 | 0.01 | 0.08 | 0.08 | 91 | 1013.1 |
| 20260906004510 | 62 | 69 | 0.0 | 1.0 | 0.01 | 0.08 | 0.08 | 91 | 1013.1 |
| 20260906004008 | 62 | 68 | 0.0 | 2.0 | 0.01 | 0.08 | 0.08 | 91 | 1013.1 |
| 20260906003511 | 62 | 68 | 0.0 | 2.0 | 0.01 | 0.08 | 0.08 | 91 | 1013.0 |
| 20260906003007 | 62 | 68 | 0.0 | 0.0 | 0.01 | 0.08 | 0.08 | 91 | 1012.9 |
| 20260906002506 | 62 | 68 | 0.0 | 0.0 | 0.00 | 0.07 | 0.07 | 91 | 1012.9 |
| 20260906002010 | 62 | 68 | 0.0 | 0.0 | 0.00 | 0.07 | 0.07 | 91 | 1012.8 |
| 20260906001507 | 62 | 68 | 0.0 | 0.0 | 0.00 | 0.07 | 0.07 | 91 | 1012.9 |
| 20260906001006 | 62 | 68 | 0.0 | 2.0 | 0.00 | 0.07 | 0.07 | 91 | 1012.9 |
| 20260906000506 | 62 | 68 | 0.0 | 2.0 | 0.00 | 0.07 | 0.07 | 91 | 1012.9 |
| 20260906000011 | 62 | 68 | 0.0 | 0.0 | 0.00 | 0.07 | 0.07 | 91 | 1012.9 |
| 20260905235506 | 62 | 68 | 0.0 | 0.0 | 0.00 | 0.07 | 0.07 | 91 | 1012.9 |
| 20260905235006 | 62 | 68 | 0.0 | 0.0 | 0.00 | 0.07 | 0.07 | 91 | 1012.9 |